{"data":{"norad_id":52840,"intl_designator":"2022-062L","name":"STARLINK-4049","alt_names":[],"object_type":"PAYLOAD","status":"ACTIVE","operator":null,"country":"US","launch_date":"2022-06-17","launch_site_code":"AFETR","launch_vehicle":null,"mission":null,"orbit_class":"UNKNOWN","rcs_meters":null,"size_class":null,"mass_kg":null,"dimensions":null,"purposes":["comms"],"wikipedia_slug":null,"has_3d_model":false,"image_url":null,"decayed_at":null,"tle_current":{"epoch":"2026-05-25T06:00:02.000160Z","epoch_age_seconds":53131,"freshness":"FRESH","line1":"1 52840U 22062L   26145.25002315  .00721412  00000+0  15021-1 0  9993","line2":"2 52840  53.2150  43.4141 0001531  65.9475 307.3286 15.42716260  5851","mean_motion":15.4271626,"eccentricity":0.0001531,"inclination_deg":53.215,"raan_deg":43.4141,"arg_perigee_deg":65.9475,"mean_anomaly_deg":307.3286,"bstar":0.015021,"rev_number":585,"period_min":93.341856654833,"perigee_km":437.05310134475,"apogee_km":439.1402320935,"semimajor_km":6816.2336667191,"source":"CELESTRAK","updated_at":"2026-05-25T13:38:17.242622Z"}}}